Content
SEND FEEDBACK

Daily
Averages
Monthly
Summary
France

CAEN, FRANCE


Home > Europe > France
Elevation: 220 feet     Latitude: 49 11N     Longitude: 000 27W

WEATHER
 
SELECT A DAY
Number of Records: 215,275;   Date Range: 7/1/96 - 7/27/14
 
SHARE

PRINT THIS DATA

[ ← Previous Day ]
WEATHER ALMANAC - JANUARY 18, 2013
[ Next Day → ]
[ °C ]   °F
Weather ElementAverageHighLow
Temperature28.3 °F30.2 °F (12:30 am)26.6 °F (7:00 am)
Dewpoint25.3 °F28.4 °F (7:30 pm)21.2 °F (6:00 am)
Humidity88.6 %100 % (1:30 pm)74 % (6:00 am)
Barometer29.58 in29.91 in (1:00 am)29.36 in (8:00 pm)
Wind Speed15.3 mph24.2 mph (11:00 am)
Weather ElementAverage
Visibility3.6 mi
Wind DirectionSE (134.8 °)

Weather ElementTotal
Precipitation---
Heating Degree Days36.6 (Base 65)
Averaged from 50 records on January 18, 2013
WEATHER CONDITIONS BREAKOUT
WIND DIRECTION BREAKOUT
WEATHER BY HOUR - JANUARY 18, 2013
[ °C ]   °F
Local TimeTemperatureDewpointHumidityBarometerVisibilityWind DirectionWind SpeedGust SpeedPrecipitationEventsConditions
12:30 AM30.2 °F26.6 °F86 %29.89 in5.0 miESE (120°)10.4 mph
1:00 AM30.0 °F26.0 °F78 %29.91 in4.0 miSE (130°)8.1 mphClear
1:00 AM30.2 °F26.6 °F86 %29.89 in4.3 miSE (130°)9.2 mph
1:30 AM30.2 °F24.8 °F80 %29.86 in4.3 miSE (130°)8.1 mph
2:00 AM30.2 °F26.6 °F86 %29.86 in3.7 miESE (120°)8.1 mph
2:30 AM30.2 °F24.8 °F80 %29.83 in3.7 miSE (130°)8.1 mph
3:00 AM30.2 °F24.8 °F80 %29.83 in3.7 miESE (120°)9.2 mph
3:30 AM30.2 °F24.8 °F80 %29.83 in3.7 miSE (130°)9.2 mph
4:00 AM30.2 °F23.0 °F75 %29.83 in4.3 miSE (140°)10.4 mph
4:30 AM28.4 °F24.8 °F86 %29.80 in3.7 miSE (140°)9.2 mph
5:00 AM28.4 °F23.0 °F80 %29.80 in4.3 miSSE (150°)10.4 mph
5:30 AM28.4 °F23.0 °F80 %29.80 in5.0 miSSE (160°)11.5 mph
6:00 AM28.4 °F21.2 °F74 %29.77 in5.6 miSSE (150°)13.8 mph
6:30 AM28.4 °F21.2 °F74 %29.74 in6.2 miSE (140°)12.7 mphOvercast
7:00 AM27.0 °F23.0 °F80 %29.75 in4.0 miSE (140°)16.1 mphSnowLight Snow
7:00 AM26.6 °F23.0 °F86 %29.71 inSE (140°)16.1 mphSnowLight Snow
7:30 AM26.6 °F21.2 °F80 %29.68 in4.3 miSE (140°)17.3 mphOvercast
8:00 AM26.6 °F23.0 °F86 %29.68 inSE (140°)17.3 mphSnowLight Snow
8:30 AM26.6 °F23.0 °F86 %29.65 in3.7 miSE (140°)19.6 mphSnowLight Snow
9:00 AM26.6 °F23.0 °F86 %29.65 inSE (130°)19.6 mphSnowLight Snow
9:30 AM26.6 °F23.0 °F86 %29.62 in5.0 miSE (140°)19.6 mphOvercast
10:00 AM26.6 °F23.0 °F86 %29.62 in5.6 miSE (140°)20.7 mphOvercast
10:30 AM26.6 °F21.2 °F80 %29.59 in6.2 miSE (130°)20.7 mphOvercast
11:00 AM26.6 °F21.2 °F80 %29.59 in6.2 miSE (140°)24.2 mphOvercast
11:30 AM26.6 °F24.8 °F93 %29.56 in1.7 miSE (130°)21.9 mphSnowLight Snow
12:00 PM26.6 °F24.8 °F93 %29.56 inSE (130°)19.6 mphSnowLight Snow
12:30 PM26.6 °F24.8 °F93 %29.53 in1.7 miSE (140°)20.7 mphSnowLight Snow
1:00 PM26.6 °F24.8 °F93 %29.53 in0.9 miSE (140°)21.9 mphSnowLight Snow
1:30 PM26.6 °F26.6 °F100 %29.50 in1.1 miSE (130°)18.4 mphSnowLight Snow
2:00 PM26.6 °F26.6 °F100 %29.47 in1.4 miSE (130°)20.7 mphRainRain
2:30 PM26.6 °F26.6 °F100 %29.44 in1.6 miSE (130°)19.6 mphRainRain
3:00 PM26.6 °F26.6 °F100 %29.44 inSE (140°)19.6 mphOvercast
3:30 PM26.6 °F26.6 °F100 %29.42 inSE (140°)19.6 mphOvercast
4:00 PM28.4 °F26.6 °F93 %29.42 in3.1 miSE (140°)18.4 mphOvercast
4:30 PM28.4 °F26.6 °F93 %29.39 in3.7 miSE (140°)18.4 mphOvercast
5:00 PM28.4 °F26.6 °F93 %29.39 inSE (130°)17.3 mphOvercast
5:30 PM28.4 °F26.6 °F93 %29.39 in1.3 miSE (130°)18.4 mphSnowLight Snow
6:00 PM28.4 °F26.6 °F93 %29.39 in1.4 miSE (130°)16.1 mphOvercast
6:30 PM28.4 °F26.6 °F93 %29.39 inSE (130°)15.0 mphRainRain
7:00 PM28.0 °F27.0 °F95 %29.41 in3.0 miSE (130°)16.1 mphRainLight Freezing Drizzle
7:00 PM28.4 °F26.6 °F93 %29.39 in3.1 miSE (130°)16.1 mphDrizzle
7:30 PM28.4 °F28.4 °F100 %29.39 inSE (140°)16.1 mphOvercast
8:00 PM28.4 °F26.6 °F93 %29.36 in3.7 miSE (130°)13.8 mphOvercast
8:30 PM28.4 °F28.4 °F100 %29.36 in3.7 miSE (130°)12.7 mphOvercast
9:00 PM30.2 °F28.4 °F93 %29.36 in4.3 miSE (140°)13.8 mphOvercast
9:30 PM30.2 °F28.4 °F93 %29.36 in3.7 miSE (140°)12.7 mphOvercast
10:00 PM30.2 °F28.4 °F93 %29.36 in3.7 miSE (130°)13.8 mphOvercast
10:30 PM30.2 °F28.4 °F93 %29.36 inSE (130°)12.7 mphOvercast
11:00 PM30.2 °F28.4 °F93 %29.36 in2.2 miSE (130°)11.5 mphOvercast
11:30 PM30.2 °F28.4 °F93 %29.36 in1.7 miSE (130°)10.4 mphOvercast
Hourly data recorded from LFRK, located miles away from Caen, France







STORIES FROM OUR PARTNERS